History for Miami, FL

Saturday, November 17, 2012 — View Current Conditions

Jump to Data:

Date:
Airport Code:
Recently Viewed Airport Codes: KMIA
Daily Summary
  Actual Average Record
Temperature
Mean Temperature 74°F 75°F  
Max Temperature 80°F 81°F 87°F (2000)
Min Temperature 67°F 68°F 43°F (1901)
Degree Days
Heating Degree Days 0 0  
Month to date heating degree days 1 0  
Since 1 July heating degree days 1 0  
Cooling Degree Days 9 10  
Month to date cooling degree days 134 186  
Year to date cooling degree days 4373 4258  
Growing Degree Days 23 (Base 50)    
Moisture
Dew Point 64°F    
Average Humidity 74    
Maximum Humidity 93    
Minimum Humidity 54    
Precipitation
Precipitation T in 0.10 in 0.91 in (1934)
Month to date precipitation 0.24 2.12  
Year to date precipitation 86.17 58.71  
Snow
Snow 0.00 in in in ()
Month to date snowfall 0.0  
Since 1 July snowfall 0.0  
Since 1 September snowfall 0.0  
Snow Depth 0.00 in    
Sea Level Pressure
Sea Level Pressure 30.06 in    
Wind
Wind Speed 6 mph (NNE)    
Max Wind Speed 16 mph    
Max Gust Speed 21 mph    
Visibility 10 miles    
Events Rain    
T = Trace of Precipitation, MM = Missing Value Source: NWS Daily Summary

Show full METARS

(help) - Comma Delimited File

Hourly Observations

Time(EST) Temperature Dew Point Humidity Sea Level Pressure Visibility Wind Direction Wind Speed Gust Speed Precipitation Events Conditions
12:53 AM 70.0°F 64.0°F 81% 30.05 in 10.0 miles North 4.6 mph - N/A   Mostly Cloudy
1:53 AM 69.1°F 64.9°F 87% 30.04 in 10.0 miles NNW 5.8 mph - N/A   Mostly Cloudy
2:53 AM 68.0°F 64.9°F 90% 30.03 in 10.0 miles NNW 5.8 mph - N/A   Scattered Clouds
3:53 AM 66.9°F 64.9°F 93% 30.02 in 10.0 miles NW 3.5 mph - N/A   Scattered Clouds
4:53 AM 66.9°F 64.0°F 90% 30.04 in 10.0 miles NNW 6.9 mph - N/A   Scattered Clouds
5:53 AM 66.9°F 64.0°F 90% 30.06 in 10.0 miles NNW 4.6 mph - N/A   Scattered Clouds
6:53 AM 68.0°F 64.0°F 87% 30.08 in 10.0 miles NNE 4.6 mph - N/A   Mostly Cloudy
7:53 AM 70.0°F 66.0°F 87% 30.09 in 10.0 miles Variable 3.5 mph - N/A   Mostly Cloudy
8:53 AM 72.0°F 64.9°F 78% 30.10 in 10.0 miles NNE 6.9 mph - N/A   Scattered Clouds
9:53 AM 73.9°F 63.0°F 68% 30.10 in 10.0 miles NE 6.9 mph - N/A   Scattered Clouds
10:53 AM 79.0°F 64.9°F 62% 30.10 in 10.0 miles NE 12.7 mph 18.4 mph N/A   Scattered Clouds
11:53 AM 79.0°F 64.9°F 62% 30.08 in 10.0 miles ENE 8.1 mph - 0.00 in   Scattered Clouds
12:53 PM 79.0°F 63.0°F 58% 30.05 in 10.0 miles NE 10.4 mph - N/A   Scattered Clouds
1:53 PM 80.1°F 62.1°F 54% 30.04 in 10.0 miles Variable 5.8 mph - N/A   Scattered Clouds
2:53 PM 79.0°F 62.1°F 56% 30.03 in 10.0 miles ENE 5.8 mph - N/A   Scattered Clouds
3:53 PM 78.1°F 64.0°F 62% 30.04 in 10.0 miles NE 12.7 mph 17.3 mph N/A   Mostly Cloudy
4:53 PM 75.9°F 62.1°F 62% 30.04 in 10.0 miles NE 9.2 mph - N/A   Scattered Clouds
5:53 PM 75.0°F 63.0°F 66% 30.05 in 10.0 miles NE 5.8 mph - N/A   Mostly Cloudy
6:53 PM 75.0°F 62.1°F 64% 30.05 in 10.0 miles NNE 4.6 mph - N/A   Mostly Cloudy
7:53 PM 73.9°F 63.0°F 68% 30.06 in 10.0 miles NE 4.6 mph - N/A   Mostly Cloudy
8:53 PM 75.0°F 63.0°F 66% 30.06 in 10.0 miles North 3.5 mph - 0.00 in Rain Light Rain
9:53 PM 75.0°F 63.0°F 66% 30.07 in 10.0 miles NE 4.6 mph - 0.00 in   Mostly Cloudy
10:53 PM 75.0°F 62.1°F 64% 30.07 in 10.0 miles NE 4.6 mph - N/A   Mostly Cloudy
11:53 PM 72.0°F 63.0°F 73% 30.06 in 10.0 miles NNW 3.5 mph - N/A   Mostly Cloudy